[[{"header":{"parameterUnit":"m.s-1","parameterCategory":1,"la1":30.2991,"la2":30.254,"lo1":-89.0895,"lo2":-89.0444,"dy":0.0017,"dx":0.0017,"nx":28,"ny":28,"refTime":"2025-07-17T03:00:00:Z","depth":0,"parameterNumber":2,"parameterNumberName":"U-component_of_WINDS"},"data":[0,0,0,0,0,0,0,0,0,0,0,0,0,0,0,0,0,0,0,0,0,0,0,0,0,0,0,0,0,0,0,0,0,0,0,0,0,0,0,0,0,0,0,0,0,0,0,0,0,0,0,0,0,0,0,0,0,0,1.4601,1.4602,0,1.4716,1.4717,1.4719,1.4719,1.4718,1.4716,1.4715,1.4834,1.4839,1.4843,0,0,0,0,0,0,0,0,0,0,0,0,0,1.4384,1.4388,1.4601,1.4603,1.4604,1.4716,1.4717,1.4719,1.472,1.4718,1.4716,1.4714,1.4833,1.4838,1.4844,0,0,0,0,0,0,0,0,0,0,0,0,0,1.4486,1.4389,1.4601,1.4618,1.462,1.4715,1.4717,1.4719,1.472,1.4718,1.4716,1.4714,1.4831,1.4838,1.4844,1.4931,0,0,1.4865,1.4868,0,0,0,0,0,0,0,0,1.4481,1.4494,1.4614,1.4617,1.462,1.4701,1.4684,1.479,1.4721,1.4682,1.4715,1.4712,1.4792,1.4802,1.4828,1.4936,1.4941,1.4866,1.487,1.4873,1.4875,0,0,0,0,0,0,0,1.4473,1.4489,1.4647,1.4616,1.4619,1.462,1.4632,1.4704,1.4748,1.4685,1.4686,1.4699,1.4793,1.4822,1.4831,1.4943,1.4866,1.4872,1.4876,1.4878,1.5127,1.513,0,0,0,0,0,0,1.4463,1.4484,1.4643,1.465,1.4543,1.4626,1.4639,1.4677,1.4747,1.4756,1.4701,1.4699,1.4811,1.4823,1.4835,1.4941,1.4873,1.4879,1.4883,1.5125,1.5128,1.5131,0,0,0,0,0,0,1.4458,1.4477,1.4638,1.4567,1.4588,1.4632,1.4674,1.4681,1.4709,1.4759,1.4767,1.4722,1.481,1.4826,1.4907,1.4945,1.4882,1.4888,1.5122,1.5126,1.5129,1.5152,0,0,0,0,0,0,1.4452,1.4475,1.4508,1.4568,1.4591,1.4708,1.4677,1.4685,1.4721,1.4719,1.4781,1.4789,1.4809,1.4896,1.4913,1.4953,1.4894,1.5119,1.5124,1.5128,1.5148,1.5156,1.5163,0,0,0,0,0,1.4444,1.451,1.451,1.4529,1.4633,1.471,1.4723,1.4745,1.4724,1.4757,1.4789,1.4787,1.4938,1.4905,1.4924,1.4966,1.5116,1.5122,1.5128,1.5145,1.5154,1.5163,0,0,0,0,0,0,1.4455,1.4519,1.4519,1.4606,1.4652,1.471,1.4753,1.4755,1.4808,1.4804,1.4829,1.4843,1.4924,1.4953,1.4915,1.5053,1.5025,1.5034,1.5031,1.5041,1.5048,1.5039,1.4899,0,0,0,0,0,1.4467,1.4524,1.4576,1.4649,1.4672,1.4708,1.4742,1.4755,1.4804,1.4824,1.4862,1.491,1.4968,1.5006,1.5063,1.5152,1.5166,1.5191,1.5198,1.5204,1.5212,1.5262,1.5273,1.5149,1.5149,1.5149,0,0,1.4494,1.4536,1.457,1.4652,1.4689,1.4747,1.4725,1.4787,1.4831,1.4834,1.4912,1.4942,1.4997,1.5083,1.5123,1.511,1.5249,1.5211,1.5216,1.5221,1.5269,1.528,1.5291,1.5153,1.5153,1.5152,0,0,1.4572,1.4609,1.4673,1.4711,1.4767,1.4791,1.4806,1.4864,1.4883,1.4962,1.4966,1.5018,1.5118,1.5157,1.519,1.5283,1.5283,1.5301,1.5339,1.5387,1.5397,1.5406,1.5439,1.545,1.5309,1.5309,1.5309,0,1.4598,1.4685,1.4706,1.4768,1.4804,1.4809,1.4874,1.491,1.4982,1.5007,1.4992,1.5117,1.5155,1.5249,1.5272,1.5299,1.5317,1.5294,1.5394,1.5403,1.5412,1.5443,1.5455,1.531,1.531,1.531,1.531,0,1.4713,1.4774,1.4819,1.4888,1.4929,1.4992,1.5023,1.5063,1.5072,1.5097,1.5178,1.5223,1.5289,1.5312,1.5322,1.5409,1.5399,1.5389,1.536,1.5425,1.5455,1.5467,1.5313,1.5312,1.5312,1.5311,0,0,1.4801,1.4881,1.4897,1.4928,1.4991,1.5038,1.5102,1.5165,1.5198,1.5249,1.5303,1.5387,1.5378,1.5415,1.5429,1.5471,1.5542,1.5456,1.5458,1.547,1.564,1.5647,1.5661,1.5542,1.5544,1.5546,1.5635,0,1.4885,1.4998,1.5019,1.5117,1.5173,1.5178,1.5234,1.5279,1.5305,1.5356,1.5385,1.5444,1.5427,1.545,1.5492,1.5524,1.5576,1.5518,1.5593,1.5595,1.5578,1.5677,1.5685,1.5766,1.5647,1.5649,1.5651,0,1.4998,1.505,1.5154,1.5209,1.5233,1.5283,1.5342,1.5392,1.5443,1.5459,1.55,1.551,1.5577,1.5546,1.5638,1.5598,1.563,1.5651,1.5655,1.5662,1.5627,1.5687,1.5793,1.5805,1.5669,1.5668,1.5667,0,1.5051,1.5147,1.5221,1.5248,1.5314,1.5349,1.5378,1.5427,1.5464,1.5517,1.5541,1.5601,1.5633,1.568,1.5705,1.568,1.5796,1.5767,1.5811,1.5811,1.5835,1.5833,1.5948,1.5856,1.5856,1.5856,1.5856,0,1.5142,1.5205,1.5246,1.5291,1.5363,1.5386,1.5456,1.5485,1.5528,1.558,1.5589,1.5638,1.5668,1.5722,1.5742,1.5816,1.5831,1.5846,1.585,1.5845,1.5843,1.5866,1.5861,1.5859,1.5859,1.5858,1.5857,0,1.5213,1.5243,1.5324,1.538,1.5395,1.5445,1.5493,1.5538,1.5564,1.5629,1.5646,1.5687,1.575,1.578,1.5858,1.5872,1.5956,1.5957,1.5938,1.594,1.5982,1.5978,1.6115,1.6134,1.603,1.6031,1.6032,0,1.5269,1.5318,1.5379,1.5413,1.5443,1.55,1.5537,1.5563,1.5601,1.5663,1.5701,1.5764,1.5816,1.5917,1.5954,1.6014,1.6016,1.606,1.6025,1.6018,1.6017,1.6013,1.6018,1.6066,1.6067,1.6068,1.6069,0,1.5365,1.5377,1.5431,1.5489,1.5533,1.5581,1.5628,1.5656,1.5689,1.5732,1.5797,1.5837,1.5917,1.5979,1.6042,1.6073,1.6077,1.608,1.6093,1.6088,1.6075,1.6082,1.5955,1.6076,1.6075,1.6075,1.6075,1.6074,1.543,1.5473,1.5523,1.5582,1.562,1.5663,1.5708,1.5739,1.5793,1.5859,1.5871,1.594,1.599,1.6074,1.6108,1.6162,1.6152,1.6171,1.6176,1.618,1.6182,1.6066,1.6173,1.6173,1.6173,1.6173,1.6173,0,1.5526,1.5558,1.5612,1.5677,1.5724,1.5723,1.5775,1.5814,1.5874,1.592,1.5971,1.6045,1.6106,1.6147,1.621,1.6245,1.6248,1.626,1.6258,1.6265,1.6188,1.617,1.6257,1.6257,1.6257,1.6257,1.6257,1.6257,1.5582,1.5655,1.5673,1.5765,1.5797,1.5863,1.5893,1.5934,1.5971,1.6052,1.6103,1.613,1.6174,1.624,1.6296,1.6307,1.6329,1.6342,1.6352,1.6279,1.627,1.6262,1.6245,1.6346,1.6346,1.6425,1.6425,1.6426]},{"header":{"parameterUnit":"m.s-1","parameterCategory":1,"la1":30.2991,"la2":30.254,"lo1":-89.0895,"lo2":-89.0444,"dy":0.0017,"dx":0.0017,"nx":28,"ny":28,"refTime":"2025-07-17T03:00:00:Z","depth":0,"parameterNumber":3,"parameterNumberName":"V-component_of_WINDS"},"data":[0,0,0,0,0,0,0,0,0,0,0,0,0,0,0,0,0,0,0,0,0,0,0,0,0,0,0,0,0,0,0,0,0,0,0,0,0,0,0,0,0,0,0,0,0,0,0,0,0,0,0,0,0,0,0,0,0,0,8.2049,8.205,0,8.2101,8.2101,8.2102,8.202,8.2017,8.2014,8.2012,8.2057,8.206,8.2064,0,0,0,0,0,0,0,0,0,0,0,0,0,8.1874,8.1877,8.2049,8.205,8.2051,8.21,8.2101,8.2102,8.202,8.2017,8.2014,8.201,8.2056,8.206,8.2065,0,0,0,0,0,0,0,0,0,0,0,0,0,8.194,8.1879,8.2049,8.2016,8.2014,8.21,8.2101,8.2102,8.2021,8.2017,8.2013,8.2009,8.2054,8.206,8.2065,8.2184,0,0,8.2083,8.2085,0,0,0,0,0,0,0,0,8.1936,8.1946,8.202,8.2019,8.2016,8.205,8.2056,8.2129,8.2022,8.2018,8.2012,8.2007,8.2057,8.2062,8.2081,8.2186,8.2188,8.2083,8.2087,8.2089,8.2091,0,0,0,0,0,0,0,8.1932,8.1944,8.2069,8.2021,8.2019,8.1996,8.2001,8.2069,8.206,8.2018,8.2012,8.202,8.2055,8.2076,8.2081,8.2189,8.2083,8.2088,8.2092,8.2094,8.2394,8.2398,0,0,0,0,0,0,8.1932,8.194,8.2068,8.2071,8.1965,8.2003,8.2008,8.2043,8.2059,8.2058,8.2023,8.2016,8.2068,8.2075,8.2083,8.2223,8.2089,8.2094,8.2098,8.2389,8.2395,8.24,0,0,0,0,0,0,8.1929,8.1944,8.2066,8.2004,8.2018,8.2011,8.205,8.2046,8.2067,8.2064,8.2061,8.2047,8.2065,8.2075,8.216,8.2223,8.2097,8.2102,8.2384,8.2391,8.2397,8.2504,0,0,0,0,0,0,8.1924,8.1944,8.199,8.2006,8.2022,8.2144,8.2054,8.205,8.2078,8.2068,8.2084,8.2083,8.2062,8.2152,8.2166,8.2229,8.2107,8.2378,8.2387,8.2395,8.2495,8.2514,8.253,0,0,0,0,0,8.1918,8.2017,8.1993,8.2009,8.208,8.2148,8.2157,8.2133,8.2083,8.2129,8.2127,8.2082,8.2215,8.2161,8.2176,8.2242,8.2374,8.2385,8.2395,8.2487,8.251,8.2529,0,0,0,0,0,0,8.2005,8.2018,8.1992,8.2099,8.2124,8.2134,8.2191,8.2158,8.2196,8.2185,8.2152,8.2156,8.2248,8.2253,8.2194,8.2358,8.2286,8.2299,8.2351,8.2373,8.239,8.2386,8.2111,0,0,0,0,0,8.2038,8.2095,8.2101,8.2195,8.2209,8.2199,8.2227,8.2207,8.223,8.2239,8.2243,8.2265,8.2311,8.2342,8.2385,8.2496,8.2497,8.2548,8.2566,8.258,8.2592,8.265,8.2672,8.2433,8.2433,8.2433,0,0,8.2104,8.2118,8.2155,8.2213,8.223,8.2287,8.2207,8.2271,8.2312,8.2248,8.2329,8.2334,8.2356,8.2454,8.2498,8.2461,8.2659,8.2593,8.2605,8.2608,8.2663,8.2686,8.2706,8.244,8.2439,8.2438,0,0,8.2253,8.227,8.235,8.237,8.2397,8.239,8.2409,8.2425,8.2426,8.2508,8.2461,8.2509,8.259,8.2607,8.2627,8.2785,8.2745,8.28,8.2891,8.2948,8.2967,8.2983,8.3039,8.3059,8.2812,8.2812,8.2812,0,8.2331,8.2418,8.2395,8.2463,8.2489,8.2437,8.2516,8.2535,8.2574,8.2592,8.2551,8.2652,8.2663,8.2765,8.2804,8.2823,8.2842,8.2797,8.2967,8.2983,8.2998,8.305,8.3071,8.2819,8.2818,8.2817,8.2817,0,8.2512,8.2573,8.2633,8.2676,8.2709,8.2782,8.2768,8.2804,8.2782,8.2778,8.2862,8.2874,8.2918,8.2941,8.2919,8.304,8.3017,8.2972,8.2898,8.3027,8.3076,8.3096,8.2828,8.2825,8.2824,8.2822,0,0,8.2715,8.2746,8.2768,8.2787,8.2814,8.286,8.293,8.2976,8.3007,8.3036,8.3093,8.3163,8.3123,8.3145,8.3124,8.3175,8.3299,8.3124,8.3124,8.3155,8.3432,8.3464,8.3488,8.3274,8.3277,8.328,8.343,0,8.2863,8.2988,8.297,8.3089,8.3144,8.3096,8.3157,8.3179,8.3178,8.3223,8.322,8.3271,8.3214,8.3227,8.3276,8.3274,8.3354,8.3263,8.3324,8.3326,8.3319,8.3514,8.3548,8.3688,8.3449,8.3452,8.3454,0,8.3053,8.3092,8.3218,8.3237,8.3259,8.3315,8.3356,8.34,8.3424,8.3419,8.3446,8.3416,8.3484,8.3412,8.3504,8.3443,8.3467,8.347,8.3475,8.3478,8.3397,8.3521,8.3732,8.3753,8.3484,8.3482,8.3479,0,8.3188,8.3271,8.3357,8.3375,8.34,8.344,8.3452,8.3472,8.3501,8.3536,8.3554,8.3595,8.3618,8.365,8.3632,8.3581,8.3727,8.3653,8.3723,8.3724,8.3755,8.3753,8.3972,8.3773,8.3773,8.3773,8.3772,0,8.3354,8.3432,8.3419,8.3471,8.3557,8.3535,8.362,8.3625,8.3644,8.3695,8.3655,8.3704,8.3678,8.3724,8.371,8.3788,8.3798,8.3795,8.379,8.3798,8.3798,8.3812,8.3801,8.3778,8.3777,8.3776,8.3775,0,8.3518,8.3513,8.3603,8.3621,8.3627,8.3689,8.3703,8.3751,8.3748,8.3813,8.3827,8.3821,8.3873,8.3859,8.3915,8.3905,8.4004,8.3987,8.3997,8.3992,8.4063,8.4056,8.4297,8.4327,8.4111,8.4113,8.4115,0,8.3624,8.3684,8.3709,8.3742,8.3758,8.3811,8.3842,8.3822,8.3855,8.3887,8.3931,8.398,8.4018,8.4104,8.4103,8.4145,8.4128,8.421,8.4134,8.414,8.4128,8.4124,8.4129,8.4224,8.4227,8.4229,8.423,0,8.3813,8.3808,8.3854,8.3901,8.3939,8.3973,8.4004,8.4032,8.4015,8.4053,8.4108,8.4138,8.4196,8.4245,8.4284,8.4293,8.4259,8.4255,8.4273,8.4281,8.4283,8.4282,8.4037,8.4249,8.4247,8.4246,8.4245,8.4244,8.395,8.4001,8.4027,8.4081,8.4102,8.4132,8.4179,8.4183,8.4229,8.4277,8.4262,8.4324,8.4345,8.4395,8.4409,8.4456,8.4424,8.4451,8.4458,8.4464,8.4473,8.4278,8.4463,8.4462,8.4462,8.4461,8.4461,0,8.4136,8.4151,8.4201,8.4246,8.4288,8.4255,8.4288,8.4324,8.438,8.4404,8.4444,8.4506,8.4553,8.4557,8.4602,8.4638,8.4623,8.465,8.4646,8.4649,8.4499,8.4478,8.4661,8.4661,8.4661,8.4661,8.4661,8.4661,8.4237,8.4321,8.432,8.4414,8.4427,8.449,8.4511,8.4538,8.4557,8.463,8.467,8.4674,8.469,8.4735,8.4776,8.4776,8.4793,8.4826,8.482,8.4679,8.4659,8.464,8.462,8.4831,8.4831,8.4965,8.4967,8.4968]}]]